星链-4643 (STARLINK-4643 )

导读

STARLINK-4643是美国太空探索技术公司星链计划中的一颗卫星,于2022年12月28日发射入轨。作为星链星座的组成部分,它主要为全球范围内用户提供低延迟、高速率的宽带互联网服务,尤其服务偏远地区及网络基础设施薄弱区域,进一步推动了星链全球卫星互联网组网进程。

基本信息
目录编号:
54824
目录名称:
STARLINK-4643
国际标识:
2022-177E
轨道中心:
EARTH
卫星名称:
星链-4643
卫星全名:
星链-4643 (STARLINK-4643 )
卫星状态:
在轨 (已飞行1353 天)
发射日期:
2022-12-28 UTC
国别 :
美国 (US)
星等 :
--
该卫星已列入 空间交会检测服务 Space Conjunction Data Service (SCDS) ,当前飞行风险评估等级: 高风险
轨道信息
数据来源 国际轨道数据 AOE轨道数据
星历时间 2026-09-11T12:24:28+0800
15小时前
查看轨道信息
2026-09-10T23:00:00+0800
1天前
查看轨道信息
半长轴 6861.193km 6861.196km
偏心率 0.0000957 0.0002079
轨道倾角 43.001° 43.002°
近地点辐角 240.675° 232.999°
升交点赤经 168.372° 171.527°
平近点角 119.401° 291.239°
近地点 482.399km 481.632km
远地点 483.713km 484.486km
周期 94.267分钟 94.267分钟
每日圈数 15.275777 15.275768
详细信息
固有亮度:
5
最大亮度:
2.5
卫星平台:
Starlink v1.5
覆盖范围:
全球
运营商:
太空探索技术公司
运营商所在国:
美国
制造商(研发单位):
太空探索技术公司
制造商所在国:
美国
使用方式:
暂无
卫星简介
星链(Starlink)计划是由太空探索技术公司(SpaceX)提出的一个巨型低轨卫星互联网星座项目,计划在2019年至2024年间在太空搭建由约1.2万颗卫星组成的“星链”网络,其中1584颗将部署在地球上空550千米处的近地轨道,并从2020年开始工作。该卫星仍在工作。
2D轨道图
3D轨道图
轨道高度分析图
轨道倾角分析图
轨道综合分析图
查看轨道综合分析图
交会数据列表
事件ID 空间交会对象 最接近时刻(TCA) 交会距离 交会风险概率(CRP) 交会风险指数(CRI) 操作
CDM_260914-044205-482406-401621
2026-09-14T
04:42:51+0000
0.146 km
中距离
9.030546E-4 高风险 0.94
CDM_260914-013505-482406-365121
2026-09-14T
01:35:42+0000
0.677 km
远距离
6.996432E-5 中风险 0.72
CDM_260912-163605-482406-650124
2026-09-12T
16:36:07+0000
0.733 km
远距离
5.691148E-5 中风险 0.7
CDM_260913-090405-482406-650123
2026-09-13T
09:04:43+0000
0.952 km
远距离
2.426166E-5 中风险 0.63
CDM_260912-181005-482406-650123
2026-09-12T
18:10:16+0000
1.454 km
极远距离
5.669219E-6 低风险 0.5
CDM_260914-030805-482406-401621
2026-09-14T
03:08:42+0000
1.801 km
极远距离
2.900111E-6 低风险 0.44
CDM_260913-103805-482406-650122
2026-09-13T
10:38:53+0000
1.982 km
极远距离
2.276723E-6 低风险 0.42
CDM_260914-030905-482406-365121
2026-09-14T
03:09:52+0000
2.474 km
极远距离
1.373802E-6 低风险 0.38
CDM_260912-150105-482406-650124
2026-09-12T
15:01:58+0000
2.847 km
极远距离
1.138876E-6 低风险 0.36
与全量物体交会距离演化趋势
与全量物体交会风险概率演化趋势